TimeCDT,TemperatureF,Dew PointF,Humidity,Sea Level PressureIn,VisibilityMPH,Wind Direction,Wind SpeedMPH,Gust SpeedMPH,PrecipitationIn,Events,Conditions,WindDirDegrees,DateUTC
12:58 AM,73.9,69.3,85,29.98,10.0,North,4.6,-,N/A,,Clear,360,2013-07-25 05:58:00
1:58 AM,72.7,68.4,86,29.96,10.0,North,1.2,-,N/A,,Clear,360,2013-07-25 06:58:00
2:58 AM,70.7,69.1,95,29.97,10.0,Calm,Calm,-,N/A,,Clear,0,2013-07-25 07:58:00
3:58 AM,70.7,68.7,93,29.98,10.0,Calm,Calm,-,N/A,,Clear,0,2013-07-25 08:58:00
4:58 AM,70.5,69.1,95,30.00,10.0,NNE,2.3,-,N/A,,Clear,20,2013-07-25 09:58:00
5:58 AM,69.8,68.5,96,30.01,10.0,Calm,Calm,-,N/A,,Clear,0,2013-07-25 10:58:00
6:58 AM,69.6,68.2,95,30.03,10.0,Calm,Calm,-,N/A,,Partly Cloudy,0,2013-07-25 11:58:00
7:19 AM,69.8,68.0,94,30.03,10.0,Calm,Calm,-,N/A,,Mostly Cloudy,0,2013-07-25 12:19:00
7:58 AM,75.2,70.7,86,30.05,10.0,NNE,2.3,-,N/A,,Mostly Cloudy,30,2013-07-25 12:58:00
8:58 AM,79.5,70.0,72,30.05,10.0,Variable,3.5,-,N/A,,Clear,0,2013-07-25 13:58:00
9:58 AM,84.0,70.5,64,30.06,10.0,Variable,5.8,-,N/A,,Partly Cloudy,0,2013-07-25 14:58:00
10:58 AM,87.6,70.0,56,30.06,10.0,ENE,8.1,-,N/A,,Partly Cloudy,70,2013-07-25 15:58:00
11:58 AM,89.4,69.6,52,30.06,10.0,Variable,2.3,-,N/A,,Clear,0,2013-07-25 16:58:00
12:58 PM,89.8,69.8,52,30.06,10.0,ESE,8.1,-,N/A,,Partly Cloudy,110,2013-07-25 17:58:00
1:58 PM,88.9,70.0,53,30.06,10.0,ESE,8.1,-,N/A,,Mostly Cloudy,120,2013-07-25 18:58:00
2:58 PM,90.9,69.8,50,30.05,10.0,SSE,8.1,-,N/A,,Mostly Cloudy,150,2013-07-25 19:58:00
3:58 PM,91.4,68.0,46,30.04,10.0,South,5.8,-,N/A,,Scattered Clouds,190,2013-07-25 20:58:00
4:30 PM,87.8,69.8,55,30.03,6.0,NNE,8.1,-,N/A,Rain,Light Rain,30,2013-07-25 21:30:00
5:00 PM,86.0,68.0,55,30.03,10.0,Variable,2.3,-,N/A,,Overcast,0,2013-07-25 22:00:00
5:58 PM,87.8,71.6,58,30.03,10.0,NE,4.6,-,0.00,,Partly Cloudy,40,2013-07-25 22:58:00
6:58 PM,87.8,71.6,58,30.01,10.0,East,5.8,-,N/A,,Clear,100,2013-07-25 23:58:00
7:56 PM,84.2,71.6,66,30.01,10.0,East,4.6,-,N/A,,Clear,80,2013-07-26 00:56:00
8:58 PM,82.4,71.6,70,30.01,10.0,East,4.6,-,N/A,,Clear,80,2013-07-26 01:58:00
9:55 PM,78.8,71.6,78,30.02,10.0,East,5.8,-,N/A,,Clear,100,2013-07-26 02:55:00
10:55 PM,78.8,71.6,78,30.04,10.0,East,5.8,-,N/A,,Clear,100,2013-07-26 03:55:00
11:58 PM,77.0,70.9,81,30.04,10.0,ESE,3.5,-,N/A,,Clear,110,2013-07-26 04:58:00